Regional Weather Roundup
Issued by NWS

Home | Current Version | Previous Version | Graphics & Text | Print | Product List | Glossary On
Versions: 1 2 3 4 5 6 7 8 9 10 11 12 13 14 15 16 17 18 19 20 21 22 23 24 25 26 27 28 29 30 31 32 33 34 35 36 37 38 39 40 41 42 43 44 45 46 47 48 49 50
000
ASUS43 KOAX 251002
RWRNE

WEATHER ROUNDUP FOR NEBRASKA
NATIONAL WEATHER SERVICE OMAHA NE
400 AM CST TUE NOV 25 2014

NOTES: SATELLITE DATA IS BEING USED TO AUGMENT CLOUD COVER ABOVE
       12000 FEET.
       "FAIR" INDICATES FEW OR NO CLOUDS BELOW 12,000 FEET WITH NO
       SIGNIFICANT WEATHER AND/OR OBSTRUCTIONS TO VISIBILITY.

  * THESE STATIONS DO NOT REPORT WEATHER SUCH AS RAIN...SNOW OR FOG.

NEZ001>004-019>022-054>056-251100-
NEBRASKA PANHANDLE

CITY           SKY/WX    TMP DP  RH WIND       PRES   REMARKS
SCOTTSBLUFF    PTCLDY    19  14  81 N5        30.09F WCI  12
ALLIANCE       CLEAR     13  11  92 W8        30.06F WCI   2
CHADRON        CLEAR     25  19  78 SW10      30.03F WCI  15
SIDNEY         CLEAR     20  13  74 W9        30.11F WCI   9
$$

NEZ057>060-069>072-079>082-251100-
SOUTHWEST NEBRASKA

CITY           SKY/WX    TMP DP  RH WIND       PRES   REMARKS
NORTH PLATTE   CLEAR     14  12  92 W6        30.12F WCI   5
IMPERIAL       CLEAR     21  15  78 W10       30.14F WCI  10
MCCOOK         CLEAR     19  17  92 W8        30.16F WCI   9
$$

NEZ005>010-023>029-035>040-094-251100-
NORTH CENTRAL NEBRASKA

CITY           SKY/WX    TMP DP  RH WIND       PRES   REMARKS
VALENTINE      CLEAR     21  17  84 SW7       30.05F WCI  12
BROKEN BOW     CLEAR     23  18  81 CALM      30.09F
ORD            CLOUDY    19  15  84 CALM      30.10F
$$

NEZ041-046>049-061>064-073>077-083>087-251100-
SOUTH CENTRAL NEBRASKA

CITY           SKY/WX    TMP DP  RH WIND       PRES   REMARKS
GRAND ISLAND   CLEAR     22  17  81 W10       30.13F WCI  11
HASTINGS       CLEAR     20  15  81 SW6       30.13F WCI  12
KEARNEY *      CLEAR     23  19  86 W9        30.14S WCI  13
$$

NEZ011>018-030>034-042>045-251100-
NORTHEAST NEBRASKA

CITY           SKY/WX    TMP DP  RH WIND       PRES   REMARKS
NORFOLK        CLEAR     15  10  80 W5        30.09F WCI   8
COLUMBUS *     CLEAR     14   5  67 CALM      30.13F
TEKAMAH        CLEAR     18   7  62 W6        30.14R WCI  10
$$

NEZ050>053-065>068-078-088>093-251100-
SOUTHEAST NEBRASKA

CITY           SKY/WX    TMP DP  RH WIND       PRES   REMARKS
LINCOLN        CLEAR     20   9  62 W5        30.17F WCI  13
OMAHA EPPLEY   CLEAR     21   7  54 W8        30.16R WCI  11
FALLS CITY     CLEAR     20  10  65 W8        30.16R WCI  10
$$

NEZ044-045-051>053-067-251100-
OMAHA AREA

CITY           SKY/WX    TMP DP  RH WIND       PRES   REMARKS
OMAHA EPPLEY   CLEAR     21   7  54 W8        30.16R WCI  11
OFFUTT AFB     CLEAR     19   8  63 NW6       30.14R WCI  10
$$


USA.gov is the U.S. government's official web portal to all federal, state and local government web resources and services.